STARLINK-11145, 59945

Orbit data source: Space-Track

STARLINK-11145, 59945 is a payload satellite owned by SpaceX/Seattle (US) in LEO that was launched on Wed, 05 Jun 2024 UTC via an FALCON 9 launch vehicle from the Air Force Eastern Test Range (AFETR). Payload-class satellites include a variety of spacecraft equipped with specific instruments for various scientific and technological missions. These include communications satellites like Starlink; space stations such as the ISS; scientific satellites like the Hubble; Earth observation satellites from companies like Planet Labs, Umbra, and HawkEye 360; GPS; miniature CubeSats for education and research; and military/defense satellites.

Loading next visibility...
Identifier
59945, 2024-107A
Orbit
LEO
Last TLE update
10 hours ago
Origin
Manufacturer
SpaceX/Seattle
Mission
Operational spacecraft
Bus & Motor
STARLINK V2M, Unknown motor
Mass
730 kg wet, ~700 kg dry
Launch date (UTC)
2024-06-05 (1 year ago)
Launch vehicle
FALCON 9
Launch site
Air Force Eastern Test Range (AFETR)
Object type
Payload
Rocket body
Debris
Shape & HBR
Unknown
Radar Cross Section
Large (>1 m²)

Expand to show TLE details & history

TLE from 10 hours ago
0 STARLINK-11145
1 59945U 24107A   25182.01704780 -.00001862  00000-0 -10518-4 0  9999
2 59945  53.1602  52.2359 0001031  97.3964 262.7171 15.69709484 62625
Epoch: 2025-07-01T00:24Z
TLE epoch observation values (Epoch: 2025-07-01T00:24:32.929Z)
Latitude
-0.00005°
Longitude
126.78011°
Altitude
360.731 km
Speed
7.694 km/s
True Right ascension
03h 28m 56s
True Declination
0° 00' 00"
Sunlit
Object was in daylight at epoch
Visualization orbit readout
Latitude
-24.60368°
Longitude
-35.34146°
Altitude
367.131 km
Speed
7.689 km/s
Apparent Right ascension
13h 53m 15s
Apparent Declination
-43° 20' 52"
Sunlit
Object is in full shadow
Visualization observer readout
Local Sidereal Time
22:06:49
Azimuth
246.052° WSW
Elevation
-48.369°
Doppler factor
1
Orbital elements
Apogee altitude
360.684 km
Perigee altitude
359.294 km
Semi-major axis
6,738.126 km
Eccentricity
0.0001
Inclination
53.1602°
RAAN
52.2359°
Arg. of periapsis
97.3964°
True anomaly
Unknown
Mean anomaly
262.7171°
Eccentric anomaly
Unknown
Mean motion
3.92405 °/min
Orbital period
91.74 mins
BSTAR
-0.000010518
Loading maneuver chart data...
Loading SW <> Apogee altitude chart data...
Loading historical data...
Loading historical data...
Loading historical data...
Loading historical data...
Loading historical data...
Loading historical data...
Loading historical data...

STARLINK-11145 Visibility forecast

Observer location: undefined°, undefined°

Span
Click to sort rows by Start time (UTC) header in descending order
Start Az.
Max El. time (UTC)
Max El. Az.
Max El.
End time (UTC)
End Az.
4 mins2025-07-01 17:23:22.622Z179.223° S2025-07-01 17:25:22.622Z119.18° SE22.656°2025-07-01 17:27:22.622Z75.439° E
4 mins2025-07-02 01:23:22.622Z280.215° WNW2025-07-02 01:25:22.622Z201.347° SSW28.428°2025-07-02 01:27:22.622Z159.185° S
|